Weather in Demyansk

Russia / Novgorod Oblast     57°38′34″N   32°27′51″E
temp.,
°C
wind,
m/s
gust,
m/s
humid.,
%
clouds,
%
prec.,
mm/h
press.,
hPa
HPBL,
m
6 august, fri
fri600:00+14e1399100 1.1 1012143
03:00+14e029998 1.3 101294
06:00+13ne1398100 0.1 1011160
09:00+14nne249772 0.1 1011304
12:00+18e2370100 0.1 1011977
15:00+20ne2365100 0.1 1010913
18:00+20ne3570100 0.1 1009586
21:00+16ese2697100 0.9 1009205
7 august, sat
sat700:00+16e41196100 0.1 1008516
03:00+16e41098100 0.3 1006603
06:00+17ese41098100 0.3 1006507
09:00+17se31098100 1.6 1006605
12:00+17ese499696 3.3 1006576
15:00+20sse368453 3.3 1006649
18:00+20sse389199 1.3 1006345
21:00+17ssw389697 1.9 1007247
8 august, sun
sun800:00+14ssw229763 0.0 100946
03:00+14sse259764 0.0 1010138
06:00+13sse279787 0.0 1010216
09:00+15ssw2592100 0.0 1011330
12:00+16ssw2692100 0.1 1012517
15:00+19sw357772 0.6 1014920
18:00+21wsw13677 0.4 1014797
21:00+16sse1185100 0.4 101511
9 august, mon
mon900:00+15sse2393100 0.0 101654
03:00+15sse2596100 0.0 101698
06:00+15se28935 0.0 1016160
09:00+22sse496112 0.0 1015492
12:00+26ssw585277 0.0 10151355
15:00+24sw376180 0.1 10161080
18:00+24w456284 0.0 1016957
21:00+18sw128585 0.0 101815
10 august, tue
tue1000:00+15s229548 0.0 101816
03:00+15ssw119351 0.0 101913
06:00+15sse22901 0.0 101946
09:00+20wsw12695 0.0 1019435
12:00+24w12494 0.0 10191326
15:00+26w2242100 0.0 10181844
18:00+24nw22524 0.0 1017604
21:00+20n2568100 0.0 1017104